Home > Weather > Kennebunk > Past weeks

Flag for USA Weather for the Past 2 Weeks in Kennebunk, Maine, USA

Now
46 °F

Overcast.


Feels Like: 41 °F
Forecast: 41 / 48 °F
Wind: 12 mph from Northeast

Location: Sanford Municipal

Current Time: May 5, 2016 at 7:05:14 PM

Latest Report: May 5, 2016 at 6:35 PM


Visibility: 10 mi

Pressure: 29.76 "Hg

Humidity: 76%

Dew Point: 39 °F

Location of KennebunkLocation

Historic Weather in Kennebunk — Graph

°F

Kennebunk Temperature Yesterday

Maximum temperature yesterday: 48 °F (at 9:15 AM)
Minimum temperature yesterday: 37 °F (at 3:55 AM)
Average temperature yesterday: 43 °F

High & Low Weather Summary for the Past Weeks

 TemperatureHumidityPressure
High77 °F (Apr 21, 4:15 PM)93% (Apr 21, 1:55 AM)30.25 "Hg (Apr 21, 1:55 AM)
Low19 °F (Apr 25, 5:15 AM)11% (Apr 21, 4:15 PM)29.76 "Hg (Apr 22, 11:55 PM)
Average46 °F60%29.98 "Hg
* Reported Apr 20 5:15 PM — May 5 5:55 PM, Kennebunk, Weather by CustomWeather, © 2016

Note: Actual official high and low records may vary slightly from our data, if they occured in-between our weather recording intervals... More about our weather records

Advertising

Kennebunk Weather History for the Previous 24 Hours

Scroll right to see more
 ConditionsComfort  
Time TempWeatherWind HumidityBarometerVisibility
5:55 PM
Thu, May 5
46 °FOvercast.18 mph71%29.76 "Hg10 mi
5:35 PM46 °FOvercast.13 mph76%29.77 "Hg10 mi
5:15 PM45 °FOvercast.12 mph87%29.78 "Hg10 mi
4:55 PM46 °FOvercast.16 mph76%29.78 "Hg10 mi
4:35 PM46 °FOvercast.15 mph76%29.77 "Hg10 mi
4:15 PM46 °FOvercast.14 mph76%29.76 "Hg10 mi
3:55 PM46 °FOvercast.10 mph76%29.78 "Hg10 mi
3:35 PM46 °FOvercast.13 mph76%29.79 "Hg10 mi
2:55 PM48 °FOvercast.14 mph71%29.79 "Hg10 mi
2:35 PM46 °FOvercast.14 mph82%29.80 "Hg10 mi
2:15 PM46 °FOvercast.16 mph76%29.79 "Hg10 mi
1:55 PM46 °FOvercast.14 mph76%29.80 "Hg10 mi
1:35 PM46 °FOvercast.13 mph76%29.80 "Hg10 mi
1:15 PM46 °FMostly cloudy.12 mph87%29.80 "Hg10 mi
12:55 PM48 °FOvercast.15 mph76%29.80 "Hg10 mi
12:35 PM46 °FOvercast.16 mph76%29.80 "Hg9 mi
12:15 PM46 °FLow clouds.13 mph82%29.81 "Hg10 mi
11:55 AM48 °FOvercast.12 mph71%29.82 "Hg10 mi
11:35 AM46 °FMostly cloudy.15 mph76%29.82 "Hg5 mi
11:15 AM45 °FLow clouds.16 mph81%29.81 "Hg4 mi
10:55 AM45 °FMostly cloudy.14 mph87%29.82 "Hg3 mi
10:35 AM46 °FMostly cloudy.14 mph87%29.81 "Hg4 mi
10:15 AM45 °FMostly cloudy.14 mph87%29.82 "Hg3 mi
9:55 AM45 °FMostly cloudy.10 mph87%29.82 "Hg3 mi
9:35 AM45 °FMostly cloudy.12 mph87%29.82 "Hg2 mi
9:15 AM45 °FMostly cloudy.13 mph81%29.81 "Hg3 mi
8:55 AM45 °FMostly cloudy.12 mph81%29.81 "Hg2 mi
8:35 AM45 °FMostly cloudy.13 mph81%29.82 "Hg2 mi
8:15 AM45 °FLow clouds.13 mph81%29.81 "Hg3 mi
7:55 AM45 °FLow clouds.13 mph81%29.80 "Hg2 mi
7:35 AM45 °FLow clouds.15 mph81%29.79 "Hg2 mi
7:15 AM45 °FLow clouds.12 mph81%29.79 "Hg2 mi
6:55 AM43 °FLow clouds.9 mph87%29.80 "Hg2 mi
6:35 AM43 °FLow clouds.10 mph81%29.79 "Hg2 mi
6:15 AM43 °FLow clouds.10 mph81%29.80 "Hg2 mi
5:55 AM43 °FLow clouds.10 mph81%29.79 "Hg2 mi
5:35 AM43 °FMostly cloudy.10 mph81%29.79 "Hg4 mi
5:15 AM43 °FMostly cloudy.9 mph87%29.79 "Hg3 mi
4:55 AM43 °FMostly cloudy.10 mph87%29.79 "Hg3 mi
4:35 AM43 °FMostly cloudy.12 mph87%29.79 "Hg3 mi
4:15 AM43 °FLow clouds.10 mph87%29.79 "Hg3 mi
3:55 AM43 °FLow clouds.10 mph87%29.80 "Hg4 mi
3:35 AM43 °FLow clouds.9 mph81%29.80 "Hg5 mi
3:15 AM43 °FLow clouds.12 mph81%29.80 "Hg8 mi
2:55 AM43 °FLow clouds.10 mph81%29.80 "Hg10 mi
2:35 AM43 °FLow clouds.10 mph81%29.81 "Hg10 mi
2:15 AM43 °FLow clouds.8 mph81%29.81 "Hg10 mi
1:55 AM41 °FLow clouds.10 mph87%29.82 "Hg10 mi
1:35 AM41 °FLow clouds.10 mph87%29.83 "Hg8 mi
1:15 AM41 °FLow clouds.8 mph87%29.84 "Hg10 mi
12:55 AM41 °FLow clouds.9 mph87%29.84 "Hg10 mi
12:35 AM41 °FLow clouds.13 mph87%29.84 "Hg10 mi
12:15 AM41 °FLow clouds.12 mph87%29.85 "Hg10 mi
11:55 PM
Wed, May 4
41 °FLow clouds.10 mph87%29.85 "Hg10 mi
11:35 PM41 °FLow clouds.12 mph87%29.85 "Hg10 mi
11:15 PM41 °FLow clouds.10 mph87%29.86 "Hg10 mi
10:55 PM41 °FMostly cloudy.10 mph87%29.86 "Hg10 mi
10:35 PM41 °FMostly cloudy.12 mph87%29.86 "Hg10 mi
10:15 PM41 °FLow clouds.14 mph81%29.88 "Hg10 mi
9:55 PM41 °FMostly cloudy.9 mph87%29.89 "Hg10 mi
9:35 PM41 °FMostly cloudy.12 mph81%29.88 "Hg10 mi
9:15 PM41 °FMostly cloudy.12 mph81%29.88 "Hg10 mi
8:55 PM41 °FMostly cloudy.13 mph81%29.88 "Hg10 mi
8:35 PM41 °FCloudy.16 mph81%29.88 "Hg10 mi
8:15 PM41 °FCloudy.9 mph87%29.89 "Hg10 mi
7:55 PM41 °FLow clouds.10 mph81%29.89 "Hg9 mi
7:35 PM41 °FLow clouds.8 mph81%29.89 "Hg10 mi
7:15 PM41 °FLow clouds.9 mph87%29.88 "Hg10 mi
Weather by CustomWeather, © 2016

See weather overviewHow to use our weather pages